SCP
0 0 0 0 0 0 0 0 0 0 0 0 0 0 0 0 0 0 0 0 0 0 0 0 0 0 0 0 0 0 0 0 0 0 0 0 0 0 0 0 0 0 0 0 0 0 0 0 0
0 0 0 0 0 0 0 0 0 0 0 0 0 0 0 0 0 0 0 0 0 0 0 0 0 0 0 0 0 0 0 0 0 0 0 0 0 0 0 0 0 0 0 0 0 0 0 0 0
0 0 0 0 0 0 0 0 0 0 0 0 0 0 0 0 0 0 0 0 0 0 0 0 0 0 0 0 0 0 0 0 0 0 0 0 0 0 0 0 0 0 0 0 0 0 0 0 0
0 0 0 0 0 0 0 0 0 0 0 0 0 0 0 0 0 0 0 0 0 0 0 0 0 0 0 0 0 0 0 0 0 0 0 0 0 0 0 0 0 0 0 0 0 0 0 0 0
0 0 0 0 0 0 0 0 0 0 0 0 0 0 0 0 0 0 0 0 0 0 0 0 0 0 0 0 0 0 0 0 0 0 0 0 0 0 0 0 0 0 0 0 0 0 0 0 0
0 0 0 0 0 0 0 0 0 0 0 0 0 0 0 0 0 0 0 0 0 0 0 0 0 0 0 0 0 0 0 0 0 0 0 0 0 0 0 0 0 0 0 0 0 0 0 0 0
0 0 0 0 0 0 0 0 0 0 0 0 0 0 0 0 0 0 0 0 0 0 0 0 0 0 0 0 0 0 0 0 0 0 0 0 0 0 0 0 0 0 0 0 -0 0 0 0 0
0 0 0 0 0 0 0 0 0 0 0 0 0 0 0 0 0 0 0 0 0 0 0 0 0 0 0 0 0 0 0 0 0 0 0 0 0 0 0 0 0 0 0 0 0 0 0 0 0
0 0 0 0 0 0 0 0 0 0 0 0 0 0 0 0 0 0 0 0 0 0 0 0 0 0 0 0 0 0 0 0 0 0 0 0 0 0 0 0 0 0 0 0 0 0 0 0 0
0 0 0 0 0 0 0 0 0 0 0 0 0 0 0 0 0 0 0 0 0 0 0 0 0 0 0 0 0 0 0 0 0 0 0 0 0 0 0 0 0 0 0 0 0 0 0 0 0
0 0 0 0 0 0 0 0 0 0 0 0 0 0 0 0 0 0 0 0 0 0 0 0 0 0 0 0 0 0 0 0 0 0 0 0 0 0 0 0 0 0 0 0 0 0 0 0 0
0 0 0 0 0 0 0 0 0 0 0 0 0 0 0 0 0 0 0 0 0 0 0 0 0 0 0 0 0 0 0 0 0 0 0 0 0 0 0 0 0 0 0 0 0 0 0 0 0
0 0 0 0 0 0 0 0 0 0 0 0 0 0 0 0 0 0 0 0 0 0 0 0 0 0 0 0 0 0 0 0 0 0 0 0 0 0 0 0 0 0 0 0 0 0 0 0 0
0 0 0 0 0 0 0 0 0 0 0 0 0 0 0 0 0 0 0 0 0 0 0 0 0 0 0 0 0 0 0 0 0 0 0 0 0 0 0 0 0 0 0 0 0 0 0 0 0
0 0 0 0 0 0 0 0 0 0 0 0 0 0 0 0 0 0 0 0 0 0 0 0 0 0 0 0 0 0 0 0 0 0 0 0 0 0 0 0 0 0 0 0 0 0 0 0 0
0 0 0 0 0 0 0 0 0 0 0 0 0 0 0 0 0 0 0 0 0 0 0 0 0 0 0 0 0 0 0 0 0 0 0 0 0 0 0 0 0 0 0 0 0 0 0 0 0
0 0 0 0 0 0 0 0 0 0 0 0 0 0 0 0 0 0 0 0 0 0 0 0 0 0 0 0 0 0 0 0 0 0 0 0 0 0 0 0 0 0 0 0 0 0 0 0 0
0 0 0 0 0 0 0 0 0 0 0 0 0 0 0 0 0 0 0 0 0 0 0 0 0 0 0 0 0 0 0 0 0 0 0 0 0 0 0 0 0 0 0 0 0 0 0 0 0
0 0 0 0 0 0 0 0 0 0 0 0 0 0 0 0 0 0 0 0 0 0 0 0 0 0 0 0 0 0 0 0 0 0 0 0 0 0 0 0 0 0 0 0 0 0 0 0 0
0 0 0 0 0 0 0 0 0 0 0 0 0 0 0 0 0 0 0 0 0 0 0 0 0 0 0 0 0 0 0 0 0 0 0 0 0 0 0 0 0 0 0 0 0 0 0 0 0
0 0 0 0 0 0 0 0 0 0 0 0 0 0 0 0 0 0 0 0 0 0 0 0 0 0 0 0 0 0 0 0 0 0 0 0 0 0 0 0 0 0 0 0 0 0 0 0 0
0 0 0 0 0 0 0 0 0 0 0 0 0 0 0 0 0 0 0 0 0 0 0 0 0 0 0 0 0 0 0 0 0 0 0 0 0 0 0 0 0 0 0 0 0 0 0 0 0
0 0 0 0 0 0 0 0 0 0 0 0 0 0 0 0 0 0 0 0 0 0 0 0 0 0 0 0 0 0 0 0 0 0 0 0 0 0 0 0 0 0 0 0 0 0 0 0 0
0 0 0 0 0 0 0 0 0 0 0 0 0 0 0 0 0 0 0 0 0 0 0 0 0 0 0 0 0 0 0 0 0 0 0 0 0 0 0 0 0 0 0 0 0 0 0 0 0
0 0 0 0 0 0 0 0 0 0 0 0 0 0 0 0 0 0 0 0 0 0 0 0 0 0 0 0 0 0 0 0 0 0 0 0 0 0 0 0 0 0 0 0 0 0 0 0 0
0 0 0 0 0 0 0 0 0 0 0 0 0 0 0 0 0 0 0 0 0 0 0 0 0 0 0 0 0 0 0 0 0 0 0 0 0 0 0 0 0 0 0 0 0 0 0 0 0
0 0 0 0 0 0 0 0 0 0 0 0 0 0 0 0 0 0 0 0 0 0 0 0 0 0 0 0 0 0 0 0 0 0 0 0 0 0 0 0 0 0 0 0 0 0 0 0 0
0 0 0 0 0 0 0 0 0 0 0 0 0 0 0 0 0 0 0 0 0 0 0 0 0 0 0 0 0 0 0 0 0 0 0 0 0 0 0 0 0 0 0 0 0 0 0 0 0
0 0 0 0 0 0 0 0 0 0 0 0 0 0 0 0 0 0 0 0 0 0 0 0 0 0 0 0 0 0 0 0 0 0 0 0 0 0 0 0 0 0 0 0 0 0 0 0 0
0 0 0 0 0 0 0 0 0 0 0 0 0 0 0 0 0 0 0 0 0 0 0 0 0 0 0 0 0 0 0 0 0 0 0 0 0 0 0 0 0 0 0 0 0 0 0 0 0
Wind_Speed
9 6 2 5 8 7 4 1 3 1 3 3 5 10 10 6 4 5 3 2 9 9 7 9 11 12 12 12 12 12 12 14 15 15 15 15 15 15 15 15 15 15 15 15 15 15 15 14 15
4 3 6 7 7 4 1 1 4 3 6 6 5 6 7 5 2 3 1 3 10 10 8 8 11 11 11 11 11 11 12 13 14 15 15 15 15 15 15 15 15 15 15 15 15 15 15 15 16
3 3 6 6 5 6 5 5 6 3 4 4 5 5 5 3 1 1 1 6 8 7 7 8 11 11 11 11 11 11 12 13 14 14 14 14 15 15 14 14 14 15 15 15 15 15 15 15 16
4 5 7 7 5 4 9 8 6 4 4 5 6 5 3 3 1 1 3 8 8 6 6 8 11 11 11 10 11 11 12 12 13 14 14 14 14 14 14 14 14 14 15 15 15 15 15 15 16
5 6 7 4 3 1 4 5 6 5 3 3 5 6 3 3 4 5 6 7 7 6 5 7 10 10 10 10 11 11 11 12 12 13 13 14 14 13 13 13 13 14 14 15 15 15 15 15 17
6 6 6 2 3 2 3 5 5 5 4 4 5 6 3 2 3 5 7 6 6 6 4 4 7 8 9 10 10 11 11 11 12 13 13 14 14 13 13 13 13 14 14 15 15 15 15 15 16
6 5 4 5 5 3 3 4 6 6 5 4 7 7 2 1 2 5 7 7 6 6 5 3 3 4 6 8 10 10 10 10 11 12 12 12 12 12 11 11 12 13 14 14 14 14 14 14 15
5 6 4 3 5 4 3 3 4 7 5 3 4 9 7 6 5 6 7 7 6 6 5 4 3 2 2 4 8 10 10 10 10 11 11 11 11 11 10 9 10 12 13 13 13 13 13 13 14
5 7 2 1 5 5 4 4 3 4 7 4 3 3 5 7 7 7 5 5 4 4 4 3 3 2 1 1 5 7 8 8 9 9 11 10 6 7 7 7 9 10 10 11 11 11 11 11 12
6 5 2 2 3 5 4 4 7 5 4 3 2 2 4 6 7 7 6 5 3 2 2 3 3 2 1 0 2 3 3 3 4 4 6 5 5 4 6 8 8 8 8 8 10 10 9 7 5
4 5 2 1 0 2 3 3 4 9 4 7 9 9 6 6 7 7 6 5 4 2 1 3 3 2 1 1 2 2 2 2 3 4 5 5 5 4 4 3 4 4 4 4 6 6 4 4 4
3 1 2 2 1 2 2 4 3 5 5 4 8 9 7 8 8 8 7 5 4 3 1 2 3 1 0 2 3 3 3 2 2 3 5 5 5 5 4 3 3 3 2 3 3 3 4 5 5
2 1 2 3 3 2 2 2 3 3 2 5 9 8 8 8 6 5 6 5 5 3 1 2 2 1 2 3 3 4 4 4 3 3 4 6 6 6 5 4 4 4 3 3 4 4 5 5 5
2 0 1 3 3 2 3 1 2 6 5 6 8 8 8 8 8 6 6 6 5 4 2 0 1 2 4 5 5 5 5 5 5 5 5 6 6 7 6 6 5 4 4 4 4 5 5 4 4
1 1 3 3 4 3 3 4 7 6 8 8 8 7 7 7 7 7 7 6 6 4 3 2 3 5 7 8 7 6 5 5 6 5 6 7 7 8 7 6 5 4 4 5 5 5 5 5 5
3 2 3 5 5 4 6 9 7 7 11 10 8 8 8 7 7 7 7 6 6 5 4 3 4 7 8 8 8 6 6 6 6 6 6 8 8 8 8 7 6 5 4 5 5 4 5 5 5
1 2 5 6 4 5 6 9 4 5 10 10 9 9 9 8 8 8 8 7 7 6 5 5 6 8 9 9 8 8 7 7 6 6 6 7 8 8 8 7 5 5 5 5 5 5 4 5 5
6 6 5 5 3 5 6 10 6 5 8 10 10 10 11 13 12 9 8 8 7 6 6 7 8 9 10 9 9 8 8 7 6 5 6 8 7 8 9 7 6 6 6 6 5 6 6 4 4
6 6 5 6 4 7 11 13 11 7 8 10 11 13 15 16 9 9 9 8 8 7 7 9 10 10 9 8 6 6 6 5 5 6 7 7 8 8 8 8 7 6 7 6 5 4 7 7 3
5 5 7 7 3 7 8 12 12 8 10 12 15 17 18 13 10 12 11 10 10 10 9 10 11 11 9 6 5 5 6 5 5 5 6 7 7 7 8 8 7 6 7 7 6 5 4 5 5
7 9 9 8 3 2 4 9 9 10 9 10 12 14 15 18 19 17 15 13 11 11 11 10 11 10 9 10 9 9 6 5 4 5 5 6 7 8 8 9 8 7 7 7 6 5 6 5 5
9 9 8 6 3 6 4 8 8 8 9 12 16 14 16 17 17 17 17 15 14 12 9 10 10 10 11 12 13 14 9 7 5 4 5 6 7 8 8 8 8 8 7 7 6 5 4 5 3
9 4 5 4 4 5 4 8 9 5 9 13 17 19 19 17 18 20 19 17 12 10 10 10 10 11 12 10 11 12 9 8 8 6 8 7 6 6 7 7 8 8 7 7 7 7 6 4 4
6 6 5 5 2 7 10 11 11 9 12 12 15 17 16 15 16 15 12 11 10 9 10 11 12 11 11 11 10 12 16 15 14 11 9 7 5 5 6 7 7 7 7 7 7 7 8 6 6
6 7 2 3 3 11 6 10 13 11 11 13 15 13 9 11 14 15 17 16 15 14 12 12 13 12 11 12 10 11 15 17 17 15 12 10 7 5 6 7 6 6 6 6 6 7 6 5 6
9 12 11 9 9 7 4 13 11 8 8 8 10 8 5 10 14 17 18 18 16 15 14 13 14 12 12 13 11 10 11 10 10 10 11 10 8 6 7 7 7 7 7 7 6 6 5 5 5
8 8 8 5 2 6 10 10 10 5 8 11 10 6 8 11 14 15 15 15 15 15 15 15 14 12 13 13 13 12 10 9 10 9 8 8 7 8 8 8 8 7 7 7 6 5 5 5 4
8 9 6 7 6 9 10 9 8 9 13 12 9 10 10 10 11 12 13 14 13 13 10 11 12 13 12 13 13 12 11 10 11 11 11 10 9 9 10 8 8 7 7 6 6 5 5 5 4
10 8 7 7 6 7 10 13 9 12 11 10 12 12 11 12 14 13 11 10 10 10 10 11 11 11 12 13 12 13 11 10 11 10 11 11 9 10 10 10 9 8 7 6 6 5 5 5 4
7 10 11 10 9 7 10 15 5 8 7 7 10 7 8 11 10 10 10 11 11 12 12 12 12 12 13 12 12 13 12 12 12 11 11 11 11 10 10 9 9 8 7 7 7 7 6 6 5
Wind_Direction
326 324 63 57 55 53 73 110 164 110 63 48 88 102 104 91 128 155 245 160 140 142 140 130 122 118 116 115 114 114 113 112 108 103 98 93 88 83 77 72 66 62 60 59 58 57 55 51 47
323 349 53 59 81 82 63 213 132 127 137 131 79 77 79 78 84 114 64 140 138 141 139 133 127 123 121 119 117 116 116 115 113 108 104 99 94 89 83 77 72 67 63 61 60 59 57 53 50
322 47 76 70 95 148 170 210 162 158 125 109 76 59 82 82 82 110 145 148 132 135 134 138 134 130 128 125 122 121 122 121 119 115 111 106 101 95 89 82 76 71 67 65 63 61 60 57 55
58 46 54 69 87 183 172 198 177 139 91 78 102 72 66 20 19 100 109 134 128 130 133 143 139 136 134 133 130 129 128 128 126 123 119 114 108 103 96 89 82 77 72 69 67 65 63 62 60
60 73 63 67 87 135 180 189 161 138 108 83 101 101 85 359 30 56 88 110 121 121 130 143 141 142 144 144 141 140 137 136 135 132 127 123 119 114 107 98 90 83 79 75 72 69 68 66 65
56 65 82 129 155 177 188 167 139 127 115 109 103 113 142 350 60 68 82 84 97 106 103 120 137 149 152 154 154 152 150 147 144 143 138 134 130 126 119 109 99 92 86 82 77 73 72 70 69
95 93 127 158 161 188 207 131 127 141 121 129 130 120 164 222 116 101 87 80 75 78 79 74 96 131 153 160 164 162 160 156 153 151 147 142 138 135 128 119 108 100 93 88 82 76 74 72 71
112 98 93 141 167 201 211 105 121 139 122 69 107 144 186 197 146 105 82 74 71 65 62 55 55 71 123 164 173 170 167 163 161 157 152 148 146 143 140 131 118 108 101 95 88 81 75 70 68
80 76 94 168 186 205 206 130 115 102 100 61 39 157 177 146 133 106 87 69 65 56 43 38 35 32 47 170 176 172 170 168 162 160 157 151 148 146 146 140 127 116 108 101 94 86 77 67 61
76 113 166 195 203 193 189 154 150 112 95 89 58 81 108 124 133 132 133 132 118 90 30 22 16 355 344 88 146 149 145 146 146 150 157 154 148 145 141 137 124 114 103 94 88 83 76 69 55
92 155 182 147 77 147 150 155 151 129 172 190 181 177 153 134 138 145 148 149 147 130 35 355 348 335 343 88 110 116 112 115 120 136 148 140 133 130 121 115 109 98 86 74 73 69 62 64 61
86 148 147 144 76 88 123 147 147 164 198 186 166 156 149 149 156 159 157 154 146 134 78 345 330 313 133 112 107 109 107 100 100 110 130 131 128 124 116 105 99 88 78 83 72 70 65 62 60
87 215 156 157 136 133 113 143 159 175 134 111 125 140 154 157 159 160 152 148 147 142 110 340 330 179 142 121 110 103 99 96 91 90 110 126 128 125 113 101 88 81 78 82 80 74 69 60 55
143 337 262 208 189 184 176 214 177 204 167 138 145 161 169 171 169 164 162 161 162 158 154 29 47 133 129 116 109 102 96 92 83 79 92 109 117 119 115 105 93 81 78 78 76 74 72 62 59
122 10 314 248 202 207 140 264 236 185 161 169 176 177 179 184 183 182 180 173 170 167 156 125 101 108 111 107 103 97 91 89 84 80 84 98 106 111 111 104 93 82 79 79 74 67 64 60 58
58 43 285 275 194 178 154 251 254 163 167 187 192 192 192 195 194 189 180 173 174 166 157 137 120 113 110 107 102 96 89 86 83 83 86 92 98 105 104 100 92 85 78 74 72 61 64 56 59
21 236 244 284 194 164 181 242 260 161 180 195 199 202 201 202 203 197 185 178 176 171 159 142 130 122 115 107 100 93 88 83 81 81 85 89 91 96 100 97 92 87 79 69 71 58 66 63 66
216 217 237 250 213 163 211 249 256 186 200 211 208 209 209 209 207 192 184 181 176 172 162 149 139 133 125 115 106 96 84 77 74 76 83 91 94 97 99 94 87 86 85 73 70 74 62 61 70
179 194 231 251 226 183 220 245 256 208 217 229 222 215 216 217 201 184 182 177 173 174 167 160 153 150 142 135 128 116 103 92 83 76 79 88 94 95 98 99 88 83 84 80 81 85 68 48 32
225 246 262 280 251 199 239 256 258 227 214 222 222 220 218 209 190 191 187 182 181 180 177 171 166 162 158 140 126 117 116 101 85 83 74 76 89 95 100 99 95 88 88 72 59 71 85 54 27
227 222 236 247 302 269 286 285 253 247 226 232 229 224 217 205 197 191 188 188 184 185 182 176 170 164 149 136 125 119 108 100 89 88 79 69 81 87 96 97 98 89 89 85 70 69 91 95 45
236 220 216 229 237 263 216 271 256 241 243 240 238 230 223 211 198 189 187 188 188 184 176 170 165 157 150 149 147 146 144 138 134 127 110 92 84 90 94 97 98 93 90 88 79 70 79 101 91
213 191 187 209 216 260 224 253 265 229 246 247 241 234 227 211 196 191 189 186 179 172 171 166 158 156 156 158 156 144 133 127 129 122 112 102 90 89 95 98 99 96 93 91 88 80 73 75 91
135 77 55 45 74 259 214 225 259 205 217 235 241 236 225 205 193 187 177 168 169 168 166 164 161 161 160 158 158 149 143 142 142 140 131 122 112 100 98 99 99 100 100 98 95 91 86 83 84
137 114 31 310 266 247 211 227 248 221 219 223 240 245 225 192 181 176 175 176 176 174 171 168 165 164 163 159 158 157 153 153 153 150 146 143 138 132 128 118 112 108 108 105 102 97 92 90 93
184 163 174 206 232 265 242 237 250 243 252 259 263 268 212 183 182 184 183 180 177 175 172 170 169 166 165 163 161 158 156 154 154 154 152 150 148 144 140 129 122 120 117 114 108 102 100 99 100
169 208 180 167 258 275 255 264 292 257 264 256 258 253 208 191 187 185 181 179 177 177 177 174 170 167 168 165 160 161 162 159 155 151 145 144 144 144 140 134 130 127 124 123 119 113 113 112 107
156 154 132 174 214 253 263 244 237 218 231 239 241 234 217 193 187 184 182 181 179 177 171 170 171 170 167 164 166 167 167 161 156 154 155 154 151 146 146 142 138 135 133 132 124 122 127 123 125
158 173 178 172 181 196 270 259 212 206 219 228 237 231 208 193 190 186 182 178 174 169 170 171 171 167 168 169 167 164 166 160 159 160 160 158 154 153 155 153 149 147 147 144 138 141 145 145 150
193 181 165 178 212 207 247 263 190 203 229 237 249 239 200 191 185 179 174 172 176 179 178 179 177 176 175 170 166 166 165 162 164 165 165 161 159 160 159 156 155 157 157 157 156 160 164 168 176